DW9882 Weather Reports


Display with metric or nautical units.
time (UTC)temp
F
wind
direction
speed
MPH
gust
MPH
rain 1hr
in
rain 24hr
in
rain mn
in
humidity
%
barometer
mb
20260510191704 66 101 1.0 5.0 0.00 0.00 0.00 41 1023.9
20260510191205 66 43 2.0 7.0 0.00 0.00 0.00 39 1023.9
20260510190705 66 111 3.0 12.0 0.00 0.00 0.00 39 1024.0
20260510190205 66 151 2.0 6.0 0.00 0.00 0.00 38 1023.9
20260510185705 66 44 2.0 5.0 0.00 0.00 0.00 38 1024.0
20260510185205 66 36 1.0 3.0 0.00 0.00 0.00 40 1024.0
20260510184705 65 22 1.0 3.0 0.00 0.00 0.00 40 1024.1
20260510183705 65 42 3.0 8.0 0.00 0.00 0.00 40 1024.2
20260510183205 65 148 1.0 3.0 0.00 0.00 0.00 44 1024.2
20260510182704 64 134 2.0 3.0 0.00 0.00 0.00 41 1024.2
20260510181704 64 98 2.0 7.0 0.00 0.00 0.00 43 1024.4
20260510181204 64 64 2.0 6.0 0.00 0.00 0.00 43 1024.3
20260510180705 64 32 2.0 7.0 0.00 0.00 0.00 42 1024.4
20260510180205 64 70 1.0 9.0 0.00 0.00 0.00 44 1024.5
20260510175705 64 49 1.0 8.0 0.00 0.00 0.00 44 1024.5
20260510174705 63 120 0.0 5.0 0.00 0.00 0.00 46 1024.6
20260510173705 63 100 2.0 7.0 0.00 0.00 0.00 45 1024.6
20260510172705 62 116 2.0 5.0 0.00 0.00 0.00 47 1024.6
20260510172205 62 45 3.0 7.0 0.00 0.00 0.00 46 1024.5
20260510171704 62 76 3.0 7.0 0.00 0.00 0.00 48 1024.6
20260510171205 62 154 1.0 6.0 0.00 0.00 0.00 48 1024.7
20260510170205 61 355 2.0 5.0 0.00 0.00 0.00 50 1024.7
20260510165704 61 36 2.0 5.0 0.00 0.00 0.00 49 1024.7
20260510165205 61 46 1.0 3.0 0.00 0.00 0.00 46 1024.8
20260510164705 61 59 2.0 6.0 0.00 0.00 0.00 48 1024.8
20260510164205 61 117 0.0 3.0 0.00 0.00 0.00 51 1024.7
20260510162705 60 63 1.0 2.0 0.00 0.00 0.00 54 1024.7
20260510162204 60 159 0.0 2.0 0.00 0.00 0.00 56 1024.7
20260510161204 59 31 1.0 6.0 0.00 0.00 0.00 57 1024.8
20260510160705 59 85 1.0 5.0 0.00 0.00 0.00 58 1024.7
20260510160205 58 156 1.0 5.0 0.00 0.00 0.00 60 1024.7
20260510155705 58 160 1.0 3.0 0.00 0.00 0.00 60 1024.7
20260510155205 58 182 1.0 3.0 0.00 0.00 0.00 62 1024.7
20260510154705 57 99 2.0 6.0 0.00 0.00 0.00 62 1024.7
20260510154204 57 91 2.0 6.0 0.00 0.00 0.00 63 1024.7
20260510153205 56 49 1.0 3.0 0.00 0.00 0.00 65 1024.7
20260510152704 56 80 2.0 7.0 0.00 0.00 0.00 65 1024.7
20260510152205 56 161 2.0 6.0 0.00 0.00 0.00 67 1024.7
20260510151705 55 185 1.0 3.0 0.00 0.00 0.00 68 1024.7
20260510151205 55 185 2.0 5.0 0.00 0.00 0.00 68 1024.7
20260510150705 54 67 1.0 3.0 0.00 0.00 0.00 70 1024.7
20260510150205 54 191 1.0 2.0 0.00 0.00 0.00 72 1024.7
20260510145705 54 191 0.0 3.0 0.00 0.00 0.00 72 1024.7
20260510144705 53 155 2.0 3.0 0.00 0.00 0.00 74 1024.7
20260510143704 52 163 1.0 3.0 0.00 0.00 0.00 75 1024.8
20260510142704 52 122 1.0 3.0 0.00 0.00 0.00 77 1024.7
20260510142204 51 86 1.0 3.0 0.00 0.00 0.00 78 1024.8
20260510141704 51 224 0.0 3.0 0.00 0.00 0.00 79 1024.8
20260510140705 51 66 0.0 2.0 0.00 0.00 0.00 79 1024.8
20260510135704 50 66 1.0 2.0 0.00 0.00 0.00 81 1024.8
20260510135204 50 66 0.0 0.0 0.00 0.00 0.00 81 1024.9
20260510134705 50 66 0.0 2.0 0.00 0.00 0.00 82 1024.9
20260510134204 50 66 0.0 1.0 0.00 0.00 0.00 83 1025.0
20260510133705 49 66 0.0 2.0 0.00 0.00 0.00 83 1025.0
20260510133204 49 66 0.0 2.0 0.00 0.00 0.00 83 1025.1
20260510132705 49 66 0.0 1.0 0.00 0.00 0.00 84 1025.0
20260510132205 49 67 0.0 1.0 0.00 0.00 0.00 84 1025.0
20260510131704 48 60 0.0 2.0 0.00 0.00 0.00 84 1025.0
20260510131205 48 58 0.0 0.0 0.00 0.00 0.00 84 1025.1
20260510130705 48 58 0.0 1.0 0.00 0.00 0.00 84 1025.2
20260510130204 49 58 0.0 3.0 0.00 0.00 0.00 84 1025.2
20260510125704 49 74 0.0 3.0 0.00 0.00 0.00 84 1025.2
20260510125204 49 67 1.0 3.0 0.00 0.00 0.00 83 1025.2
20260510124204 49 72 1.0 3.0 0.00 0.00 0.00 82 1025.1
20260510123704 49 59 1.0 3.0 0.00 0.00 0.00 81 1025.2
20260510122704 49 46 0.0 0.0 0.00 0.00 0.00 80 1025.0
20260510122205 49 46 0.0 0.0 0.00 0.00 0.00 80 1025.0
20260510121704 49 46 0.0 0.0 0.00 0.00 0.00 80 1024.9
20260510120705 49 46 0.0 0.0 0.00 0.00 0.00 80 1024.9
20260510120205 49 46 0.0 0.0 0.00 0.00 0.00 80 1024.9
20260510115705 49 46 0.0 0.0 0.00 0.00 0.00 80 1024.8
20260510115204 49 46 0.0 0.0 0.00 0.00 0.00 80 1024.7
20260510114705 49 46 0.0 0.0 0.00 0.00 0.00 79 1024.7
20260510114205 49 46 0.0 0.0 0.00 0.00 0.00 79 1024.6
20260510113704 49 46 0.0 0.0 0.00 0.00 0.00 79 1024.5
20260510113204 49 46 0.0 2.0 0.00 0.00 0.00 79 1024.5
20260510112204 49 46 0.0 0.0 0.00 0.00 0.00 78 1024.5
20260510111705 49 46 0.0 0.0 0.00 0.00 0.00 78 1024.5
20260510110706 49 46 0.0 0.0 0.00 0.00 0.00 78 1024.4
20260510105704 49 46 0.0 0.0 0.00 0.00 0.00 77 1024.4
20260510105205 49 46 0.0 1.0 0.00 0.00 0.00 76 1024.3
20260510104704 49 46 0.0 1.0 0.00 0.00 0.00 76 1024.3
20260510104204 49 46 1.0 2.0 0.00 0.00 0.00 76 1024.2
20260510103704 49 46 0.0 1.0 0.00 0.00 0.00 75 1024.2
20260510103205 50 46 0.0 0.0 0.00 0.00 0.00 75 1024.1
20260510102204 50 46 0.0 0.0 0.00 0.00 0.00 75 1024.1
20260510101704 50 46 0.0 0.0 0.00 0.00 0.00 75 1024.0
20260510101204 50 46 0.0 0.0 0.00 0.00 0.00 74 1024.0
20260510100704 50 46 0.0 0.0 0.00 0.00 0.00 74 1024.0
20260510095704 50 46 0.0 0.0 0.00 0.00 0.00 74 1024.0
20260510095204 50 46 0.0 0.0 0.00 0.00 0.00 75 1024.0
20260510094704 50 46 0.0 1.0 0.00 0.00 0.00 75 1023.9
20260510094204 50 46 0.0 0.0 0.00 0.00 0.00 75 1023.9
20260510093205 50 46 0.0 1.0 0.00 0.00 0.00 75 1023.8
20260510092704 50 46 0.0 1.0 0.00 0.00 0.00 75 1023.8
20260510092204 50 46 0.0 0.0 0.00 0.00 0.00 75 1023.7
20260510091704 50 46 0.0 0.0 0.00 0.00 0.00 75 1023.7
20260510091204 50 46 0.0 0.0 0.00 0.00 0.00 76 1023.7
20260510090705 50 46 0.0 0.0 0.00 0.00 0.00 77 1023.6
20260510085704 50 46 0.0 0.0 0.00 0.00 0.00 77 1023.5
20260510085204 50 46 0.0 0.0 0.00 0.00 0.00 77 1023.5
20260510084705 50 46 0.0 0.0 0.00 0.00 0.00 78 1023.5
20260510084204 50 46 0.0 0.0 0.00 0.00 0.00 77 1023.4
20260510083704 50 46 0.0 0.0 0.00 0.00 0.00 77 1023.4
20260510083203 50 46 0.0 0.0 0.00 0.00 0.00 77 1023.4
20260510082704 50 46 0.0 0.0 0.00 0.00 0.00 77 1023.3
20260510082204 50 46 0.0 0.0 0.00 0.00 0.00 77 1023.3
20260510081704 50 46 0.0 0.0 0.00 0.00 0.00 77 1023.3
20260510081204 50 46 0.0 0.0 0.00 0.00 0.00 77 1023.3
20260510080704 50 46 0.0 0.0 0.00 0.00 0.00 77 1023.4
20260510080205 50 46 0.0 2.0 0.00 0.00 0.00 77 1023.3
20260510075704 50 46 0.0 1.0 0.00 0.00 0.00 77 1023.5
20260510075204 50 46 0.0 0.0 0.00 0.00 0.00 76 1023.6
20260510074704 50 46 0.0 0.0 0.00 0.00 0.00 76 1023.7
20260510074204 50 46 0.0 0.0 0.00 0.00 0.00 77 1023.6
20260510073704 50 46 0.0 0.0 0.00 0.00 0.00 77 1023.7
20260510073204 50 46 0.0 0.0 0.00 0.00 0.00 76 1023.7
20260510072704 50 46 0.0 0.0 0.00 0.00 0.00 76 1023.8
20260510072204 50 46 0.0 1.0 0.00 0.00 0.00 76 1023.8
20260510071704 50 46 0.0 1.0 0.00 0.00 0.00 76 1023.9
20260510071204 50 46 0.0 0.0 0.00 0.00 0.00 76 1023.8
20260510070703 50 46 0.0 1.0 0.00 0.00 0.00 76 1023.9
20260510070204 50 46 0.0 2.0 0.00 0.00 0.00 76 1023.8
20260510065204 50 46 1.0 3.0 0.00 0.00 0.00 76 1023.8
20260510064704 50 46 0.0 3.0 0.00 0.00 0.00 76 1023.8
20260510064204 50 47 0.0 3.0 0.00 0.00 0.00 77 1023.9
20260510063704 50 50 0.0 0.0 0.00 0.00 0.00 77 1023.9
20260510063204 50 50 0.0 0.0 0.00 0.00 0.00 77 1023.9
20260510062204 50 50 0.0 0.0 0.00 0.00 0.00 77 1023.9
20260510061203 50 50 0.0 0.0 0.00 0.00 0.00 76 1023.7
20260510060204 50 50 0.0 0.0 0.00 0.00 0.00 76 1023.8
20260510055703 50 50 0.0 0.0 0.00 0.00 0.00 76 1023.8
20260510055204 50 50 0.0 0.0 0.00 0.00 0.00 76 1023.8
20260510054704 50 50 0.0 0.0 0.00 0.00 0.00 76 1023.7
20260510054204 50 50 0.0 0.0 0.00 0.00 0.00 76 1023.7
20260510052204 50 50 0.0 0.0 0.00 0.00 0.00 76 1023.8
20260510051703 50 50 0.0 0.0 0.00 0.00 0.00 76 1023.6
20260510051204 50 50 0.0 1.0 0.00 0.00 0.00 76 1023.7
20260510050203 50 50 0.0 0.0 0.00 0.00 0.00 76 1023.9
20260510045204 50 50 0.0 0.0 0.00 0.00 0.00 75 1024.1
20260510044703 50 50 1.0 3.0 0.00 0.00 0.00 76 1024.1
20260510044204 50 50 0.0 0.0 0.00 0.00 0.00 76 1024.0
20260510043703 50 50 0.0 0.0 0.00 0.00 0.00 75 1023.9
20260510043204 50 50 0.0 2.0 0.00 0.00 0.00 74 1023.8
20260510042704 51 49 1.0 3.0 0.00 0.00 0.00 74 1023.7
20260510042204 51 39 0.0 3.0 0.00 0.00 0.00 73 1023.9
20260510041703 51 39 0.0 1.0 0.00 0.00 0.00 73 1024.1
20260510041203 51 42 2.0 5.0 0.00 0.00 0.00 71 1024.0
20260510040203 51 31 1.0 5.0 0.00 0.00 0.00 70 1024.0
20260510035703 51 54 1.0 7.0 0.00 0.00 0.00 68 1023.9
20260510034704 52 35 3.0 10.0 0.00 0.00 0.00 66 1023.6
20260510033703 52 11 1.0 3.0 0.00 0.00 0.00 66 1023.8
20260510032704 52 14 2.0 7.0 0.00 0.00 0.00 66 1023.8
20260510032203 52 24 5.0 12.0 0.00 0.00 0.00 66 1023.8
20260510031704 52 4 2.0 12.0 0.00 0.00 0.00 66 1023.7
20260510030704 52 11 7.0 15.0 0.00 0.00 0.00 67 1023.4
20260510030204 52 355 3.0 10.0 0.00 0.00 0.00 67 1023.2
20260510025704 52 7 5.0 12.0 0.00 0.00 0.00 68 1022.7
20260510024705 52 355 5.0 12.0 0.00 0.00 0.00 68 1022.1
20260510024205 52 19 6.0 13.0 0.00 0.00 0.00 68 1021.9
20260510023705 53 15 7.0 14.0 0.00 0.00 0.00 68 1021.7
20260510022705 53 4 7.0 16.0 0.00 0.00 0.00 67 1021.3
20260510021705 54 13 5.0 15.0 0.00 0.00 0.00 67 1020.9
20260510021205 54 333 3.0 12.0 0.00 0.00 0.00 66 1020.7
20260510020206 54 4 6.0 15.0 0.00 0.00 0.00 65 1020.4
20260510015704 55 6 9.0 23.0 0.00 0.00 0.00 65 1020.3
20260510013705 56 354 6.0 15.0 0.00 0.00 0.00 60 1019.9
20260510013205 56 17 6.0 20.0 0.00 0.00 0.00 59 1019.8
20260510012705 57 344 7.0 14.0 0.00 0.00 0.00 58 1019.5
20260510012205 57 337 7.0 18.0 0.00 0.00 0.00 57 1019.1
20260510011705 58 14 11.0 25.0 0.00 0.00 0.00 55 1018.8
20260510011205 59 15 10.0 21.0 0.00 0.00 0.00 53 1018.3
20260510010704 60 349 12.0 26.0 0.00 0.00 0.00 51 1018.0
20260510010205 62 0 11.0 24.0 0.00 0.00 0.00 48 1017.8
20260510005705 65 344 10.0 26.0 0.00 0.00 0.00 42 1017.5
20260510005204 71 15 13.0 26.0 0.00 0.00 0.00 34 1016.9
20260510004705 73 357 4.0 10.0 0.00 0.00 0.00 21 1015.9
20260510004205 74 5 3.0 6.0 0.00 0.00 0.00 19 1015.4
20260510003705 74 5 2.0 6.0 0.00 0.00 0.00 20 1015.3
20260510003205 73 56 1.0 3.0 0.00 0.00 0.00 20 1015.2
20260510002205 73 60 3.0 8.0 0.00 0.00 0.00 20 1015.1
20260510001705 73 54 1.0 3.0 0.00 0.00 0.00 21 1014.9
20260510001205 73 83 0.0 3.0 0.00 0.00 0.00 22 1014.8
20260510000704 73 47 2.0 3.0 0.00 0.00 0.00 21 1014.8
20260510000205 73 36 2.0 3.0 0.00 0.00 0.00 21 1014.8
20260509235705 73 74 1.0 5.0 0.00 0.00 0.00 22 1014.8
20260509235205 73 96 1.0 3.0 0.00 0.00 0.00 22 1014.8
20260509234705 73 40 1.0 5.0 0.00 0.00 0.00 21 1014.7
20260509234205 73 112 0.0 3.0 0.00 0.00 0.00 22 1014.7
20260509233704 74 86 1.0 3.0 0.00 0.00 0.00 21 1014.7
20260509233204 74 84 1.0 3.0 0.00 0.00 0.00 23 1014.6
20260509232705 74 90 1.0 3.0 0.00 0.00 0.00 20 1014.5
20260509231705 74 39 1.0 3.0 0.00 0.00 0.00 22 1014.5
20260509230704 73 46 0.0 2.0 0.00 0.00 0.00 23 1014.4
20260509230205 73 46 1.0 3.0 0.00 0.00 0.00 21 1014.4
20260509225704 73 47 1.0 5.0 0.00 0.00 0.00 21 1014.4
20260509225205 73 15 1.0 3.0 0.00 0.00 0.00 21 1014.4
20260509224205 74 45 1.0 5.0 0.00 0.00 0.00 20 1014.4
20260509223704 74 89 1.0 3.0 0.00 0.00 0.00 20 1014.3
20260509223205 74 79 1.0 3.0 0.00 0.00 0.00 21 1014.2
20260509222705 74 87 2.0 3.0 0.00 0.00 0.00 20 1014.3
20260509221204 74 116 1.0 7.0 0.00 0.00 0.00 21 1014.2
20260509220704 74 114 2.0 3.0 0.00 0.00 0.00 21 1014.4
20260509220204 74 161 1.0 3.0 0.00 0.00 0.00 21 1014.3
20260509215204 74 90 0.0 3.0 0.00 0.00 0.00 22 1014.2
20260509214704 73 113 2.0 3.0 0.00 0.00 0.00 23 1014.4
20260509213705 73 141 2.0 7.0 0.00 0.00 0.00 22 1014.4
20260509213204 73 140 2.0 5.0 0.00 0.00 0.00 21 1014.3
20260509212205 73 109 3.0 7.0 0.00 0.00 0.00 22 1014.4
20260509211205 73 79 2.0 7.0 0.00 0.00 0.00 23 1014.4
20260509210204 73 110 2.0 13.0 0.00 0.00 0.00 24 1014.5
20260509205705 73 76 3.0 9.0 0.00 0.00 0.00 23 1014.5
20260509205205 73 85 2.0 7.0 0.00 0.00 0.00 23 1014.4
20260509204705 73 77 2.0 12.0 0.00 0.00 0.00 22 1014.4
20260509203204 74 45 3.0 12.0 0.00 0.00 0.00 22 1014.5
20260509201705 75 30 5.0 12.0 0.00 0.00 0.00 21 1014.6
20260509201204 75 104 3.0 8.0 0.00 0.00 0.00 22 1014.6
20260509200704 75 76 5.0 20.0 0.00 0.00 0.00 23 1014.7
20260509200205 75 80 3.0 12.0 0.00 0.00 0.00 23 1014.7
20260509195705 75 119 3.0 9.0 0.00 0.00 0.00 21 1014.8
20260509195204 75 61 5.0 14.0 0.00 0.00 0.00 22 1014.9
20260509194705 75 79 3.0 10.0 0.00 0.00 0.00 22 1014.9
20260509194204 75 41 5.0 14.0 0.00 0.00 0.00 21 1014.9
20260509193704 75 100 3.0 8.0 0.00 0.00 0.00 22 1014.9
20260509193204 75 105 5.0 12.0 0.00 0.00 0.00 21 1014.9
20260509192704 75 107 5.0 8.0 0.00 0.00 0.00 22 1014.9
20260509192204 74 109 4.0 8.0 0.00 0.00 0.00 21 1015.1